Location: Boletice
(48.8219°N, 14.2137°E)
Time: 13:11:52
(UTC+00:00)

Daily predictions for brighter satellites

Satellite Brightness Start Highest point End
(mag) Time Altitude Azimuth Time Altitude Azimuth Time Altitude Azimuth
NOSS 0 Rocket 4.0 18:26:24 10° NNW 18:32:39 74° ENE 18:38:52 10° SE
Cosmos 1953 Rocket 4.3 18:29:57 10° NNW 18:34:15 58° W 18:38:29 10° S
Okean-O 4.5 18:32:33 10° SSW 18:36:35 34° W 18:40:39 10° NNW
Cosmos 2058 Rocket 3.0 18:32:50 10° S 18:37:10 80° E 18:41:34 10° NNE
RESURS DK-1 2.4 18:33:14 10° SSW 18:37:22 87° ESE 18:41:32 10° NNE
Cosmos 405 Rocket 3.0 18:37:11 10° N 18:41:07 52° ENE 18:44:56 10° SSE
Cosmos 909 Rocket 4.1 18:35:08 10° SSW 18:41:19 59° ESE 18:47:39 10° NE
Cosmos 2237 Rocket 2.4 18:37:11 10° NNW 18:42:46 58° ENE 18:48:18 10° SE
Cosmos 1812 Rocket 4.5 18:41:07 10° SSE 18:44:59 30° E 18:48:54 10° NNE
Helios 1A Rocket 4.0 18:42:10 10° S 18:46:07 48° W 18:50:08 10° NNW
DMSP B5D2-2 4.2 18:42:19 10° NNE 18:47:36 84° WNW 18:52:52 10° SSW
Cosmos 1818 3.6 18:42:25 10° SSW 18:47:52 81° SE 18:53:22 10° NE
Cosmos 482 Debris 4.3 18:46:40 10° W 18:49:13 37° N 18:51:08 10° ENE
Cosmos 192 4.4 18:45:21 10° NNW 18:50:20 70° ENE 18:55:15 10° SSE
Cosmos 1825 2.5 18:50:09 10° NNW 18:53:56 67° W 18:57:40 10° S
Exosat Rocket 4.1 18:51:20 10° NNW 18:57:42 68° WSW 19:02:45 10° SSE
Cosmos 2227 Rocket 2.9 18:54:24 10° SSE 18:59:17 31° ESE 19:04:11 10° NE
CZ-4C R/B 4.2 18:54:57 10° W 18:59:46 31° NNW 19:05:27 10° NE
Cosmos 1655 Rocket 4.4 18:53:45 10° N 18:59:46 45° ENE 19:05:42 10° SE
Abrixas rocket 0.5 18:58:21 10° WSW 18:59:54 51° S 19:00:44 21° E
BREEZE-M DEB (TANK) 3.9 18:58:16 10° WSW 19:01:26 84° SSE 19:10:00 10° ENE
ATLAS 2AS CENTAUR R/B 3.7 18:53:56 10° WSW 19:01:46 62° NW 19:09:25 10° NE
Cosmos 2058 3.5 18:59:24 10° NNW 19:03:32 60° W 19:07:37 10° S
Cosmos 2297 Rocket 2.5 19:00:31 10° S 19:05:48 43° ESE 19:11:08 10° NE
Cosmos 1633 3.0 19:02:51 10° N 19:06:18 41° ENE 19:09:14 13° SE
FALCON 9 DEB 3.9 19:04:32 10° SSW 19:07:07 25° SE 19:09:24 12° E
IRIDIUM 106 4.5 19:02:21 10° SSE 19:07:24 54° E 19:12:30 10° NNE
Lacrosse 5 rocket 3.3 19:04:57 10° WNW 19:08:32 27° N 19:12:16 10° ENE
FALCON 9 DEB 3.6 19:09:01 10° SSW 19:11:45 31° SE 19:14:19 11° E
Resurs 01 Rocket 1.8 19:08:36 11° SSE 19:12:49 55° ENE 19:17:12 10° N
Resurs 1-3 3.6 19:10:10 10° SSE 19:14:33 88° WSW 19:18:59 10° NNW
Genesis I 3.3 19:10:36 10° NW 19:14:37 73° NE 19:17:40 17° SE
Cosmos 2219 3.4 19:09:37 10° S 19:14:56 46° ESE 19:20:17 10° NE
Meteor 2-14 Rocket 4.5 19:09:06 10° N 19:15:08 63° ENE 19:21:08 10° SSE
Cosmos 2333 Rocket 4.2 19:11:33 10° NW 19:16:12 26° WSW 19:20:50 10° SSW
BREEZE-M DEB (TANK) 3.8 19:12:36 10° W 19:16:40 89° N 19:31:47 10° E
Meteor 1-4 Rocket 4.3 19:16:24 14° E 19:16:48 15° E 19:18:48 10° NE
SJ-6B 4.0 19:15:05 10° S 19:18:37 41° W 19:22:14 10° NNW
ERS-2 4.4 19:19:02 10° N 19:22:14 29° WNW 19:25:25 10° SW
Cosmos 2084 Rocket 3.7 19:19:29 10° SSW 19:23:10 38° ESE 19:26:56 10° NE
Cosmos 389 Rocket 2.6 19:19:55 10° SSW 19:23:27 81° WNW 19:27:03 10° N
Cosmos 1190 Rocket 4.2 19:18:42 10° S 19:23:42 48° ESE 19:28:42 10° NNE
FALCON 9 DEB 3.2 19:20:54 10° SW 19:23:46 41° SSE 19:26:05 14° ENE
Ariane Rocket 3.4 19:19:58 10° S 19:24:59 65° WSW 19:30:02 10° NNW
Cosmos 614 Rocket 4.2 19:22:10 10° SSW 19:27:17 72° WNW 19:32:24 10° NNE
Terra 3.6 19:25:00 12° E 19:27:26 18° ENE 19:30:33 10° NNE
Cosmos 2251 Rocket 4.4 19:23:53 10° SW 19:29:08 54° WNW 19:34:23 10° NNE
FALCON 9 DEB 3.9 19:27:05 10° W 19:30:27 52° NNW 19:33:50 10° ENE
ATLAS 3B R/B 3.9 19:24:42 10° NW 19:31:07 38° WSW 19:37:45 10° S
Cosmos 2279 Rocket 4.1 19:27:30 10° S 19:33:41 82° W 19:39:56 10° N
SPOT 5 4.0 19:34:55 18° ESE 19:37:13 27° ENE 19:41:16 10° N
SPOT 1/Viking Rocket 3.8 19:33:40 19° SE 19:37:17 54° ENE 19:42:24 10° N
Cosmos 1980 4.3 19:33:26 10° NW 19:38:59 56° WSW 19:44:12 12° S
USA 215 3.5 19:34:16 15° ESE 19:39:43 69° NNE 19:46:14 10° NW
Cosmos-2242 3.0 19:35:49 12° S 19:39:44 59° E 19:43:59 10° NNE
SL-16 R/B 2.4 19:34:10 10° NNW 19:39:48 59° ENE 19:43:26 22° SE
Cosmos 2151 3.0 19:36:23 10° N 19:40:43 85° W 19:44:09 16° S
Meteor 2-21 Rocket 4.4 19:35:10 10° N 19:41:15 77° E 19:46:19 15° SSE
Cosmos 676 Rocket 4.3 19:37:17 10° S 19:42:08 42° ESE 19:47:00 10° NE
SPOT 3 Rocket 3.6 19:40:39 14° SSE 19:45:13 81° WSW 19:50:25 10° NNW
FALCON 9 DEB 2.9 19:42:34 10° SW 19:45:33 52° SSE 19:46:41 31° E
COSMOS 2455 3.2 19:43:32 10° S 19:49:07 42° ESE 19:54:45 10° NE
Meteor 2-16 Rocket 4.4 19:45:25 10° N 19:51:37 78° E 19:56:11 19° SSE
SL-4 R/B 2.3 19:48:14 10° SW 19:52:33 57° SSE 19:57:09 10° ENE
BREEZE M DEB (TANK) 4.3 19:52:00 10° SSW 19:55:45 43° SE 20:06:52 10° ENE
ERS-1 Rocket 3.6 19:53:53 26° ESE 19:56:11 41° ENE 20:00:54 10° N
Cosmos 1408 Rocket 4.4 19:52:38 10° N 19:56:34 32° ENE 19:57:46 28° ESE
IGS 5A 3.8 19:54:20 18° S 19:57:17 64° WSW 20:01:26 10° NNW
Cosmos 2266 Rocket 4.0 19:51:04 10° N 19:57:29 86° W 20:02:36 16° S
Landsat 7 3.9 19:55:13 19° S 19:58:40 74° WSW 20:03:27 10° NNW
OBJECT-B 3.8 19:57:16 10° WSW 19:58:44 13° W 20:00:14 10° WNW
Timation 1 Rocket 4.4 19:58:21 10° S 20:04:07 54° ESE 20:09:57 10° NE
Cosmos 2221 3.6 20:05:06 26° E 20:05:12 26° E 20:08:47 10° NNE
Cosmos 1862 4.3 20:01:44 10° N 20:05:17 30° ENE 20:05:50 29° E
Cosmos 1943 4.5 20:00:32 10° NNW 20:05:25 29° NE 20:08:18 19° E
ARIANE 5 R/B 2.6 20:04:04 33° SE 20:05:55 68° ENE 20:10:17 10° N
USA 245 2.8 20:05:50 43° SSE 20:06:52 89° E 20:09:52 10° NNW
Cosmos 2344 4.2 20:00:02 10° WSW 20:07:18 57° NW 20:15:29 10° NE
Cosmos 407 Rocket 4.0 20:02:49 10° SW 20:07:53 60° WNW 20:13:03 10° NNE
MetOp-B 4.5 20:09:17 19° S 20:13:05 63° WSW 20:18:26 10° NNW
Meteor 2-3 Rocket 4.2 20:07:48 10° NNW 20:13:29 61° W 20:17:47 17° S
Meteor 1-27 4.3 20:14:09 13° S 20:19:27 87° W 20:25:20 10° NNE
Cosmos 44 Rocket 3.4 20:14:36 10° SSW 20:19:35 60° ESE 20:24:44 10° NE
TSX-5 4.3 20:18:59 42° SSE 20:19:45 46° ESE 20:23:37 10° NE
Cosmos 1140 Rocket 4.2 20:16:11 10° SW 20:21:11 53° WNW 20:26:14 10° NNE
JB-3 4.4 20:18:47 10° NNE 20:22:50 58° E 20:23:23 52° SE
CZ-2C R/B 4.0 20:19:32 10° N 20:23:57 65° WNW 20:27:43 14° SSW
Cosmos 1954 Rocket 3.9 20:20:01 10° SSW 20:25:11 87° WNW 20:30:24 10° NNE
Cosmos 2237 Rocket 3.9 20:21:51 10° NW 20:26:27 26° WSW 20:30:47 11° SSW
Timation 2 Rocket 4.3 20:21:49 10° SW 20:28:21 69° WNW 20:34:37 10° NNE
Cosmos 1850 Rocket 4.4 20:27:53 40° ESE 20:28:30 41° ESE 20:33:24 10° NE
Meteor 2-15 4.3 20:29:12 31° S 20:32:15 71° E 20:38:17 10° NNE
Cosmos 1500 Rocket 4.1 20:29:14 10° N 20:33:31 42° ENE 20:33:59 41° E
Cosmos 2263 Rocket 3.0 20:34:38 30° E 20:34:38 30° E 20:38:59 10° NE
Spot 2 Rocket 3.7 20:32:07 32° S 20:34:27 66° WSW 20:39:31 10° NNW
CARTOSAT-1 3.6 20:33:27 44° S 20:34:44 73° WSW 20:39:04 10° NNW
Cosmos 1766 Rocket 4.0 20:30:28 10° NNW 20:34:44 56° W 20:36:22 34° SSW
Aureole 1 Rocket 4.0 20:35:06 39° ESE 20:35:11 39° ESE 20:39:31 10° NE
USA 229 DEB 4.1 20:28:27 10° NW 20:35:39 64° NE 20:39:35 30° ESE
USA 229 4.1 20:28:33 10° NW 20:35:44 64° NE 20:39:42 30° ESE
BREEZE M DEB (TANK) 1.9 20:30:25 10° W 20:36:18 85° NNW 20:36:34 73° ENE
Cosmos 1244 Rocket 4.5 20:30:57 10° N 20:37:21 77° E 20:39:59 38° SSE
FALCON 9 DEB 4.2 20:39:40 10° WSW 20:41:38 35° W 20:41:38 35° W
Cosmos 2082 3.6 20:37:28 10° SSW 20:43:05 85° WNW 20:48:46 10° NNE
Cosmos 2227 Rocket 3.0 20:37:36 10° SW 20:43:06 51° NW 20:48:38 10° NNE
Okean 3 Rocket 4.4 20:39:31 10° NNW 20:43:52 47° W 20:45:39 30° SSW
H-2A R/B 3.6 20:40:43 10° NNE 20:44:42 55° E 20:44:42 55° E
FALCON 9 DEB 4.2 20:44:23 10° W 20:46:28 37° WNW 20:46:28 37° WNW
Lacrosse 5 rocket 2.4 20:44:24 10° NW 20:48:30 42° NNE 20:49:58 31° ENE
Resurs 01 Rocket 4.0 20:46:33 10° SW 20:49:39 18° W 20:52:46 10° NW
Cosmos 1869 4.3 20:47:58 27° SW 20:49:44 44° WNW 20:53:32 10° N
Cosmos 2297 Rocket 3.6 20:44:42 10° WSW 20:49:56 38° NW 20:55:13 10° NNE
Cosmos 1553 Rocket 4.0 20:48:27 44° SE 20:50:06 59° E 20:56:05 10° NNE
Cosmos 468 Rocket 4.1 20:45:16 10° NNW 20:50:22 66° WSW 20:51:46 46° S
Meteor 1-4 Rocket 3.6 20:50:30 33° WSW 20:51:25 40° WNW 20:54:48 10° N
NOSS 3-1 (A) 4.1 20:46:20 10° NW 20:53:39 73° NE 20:57:37 35° ESE
Cosmos 1603 3.9 20:48:49 10° NNW 20:54:30 60° ENE 20:55:59 45° ESE
Cosmos 841 Rocket 3.5 20:50:04 10° NNW 20:55:18 69° ENE 20:56:15 55° ESE
Cosmos 1763 Rocket 3.9 20:58:14 10° NNW 21:03:10 53° WSW 21:04:17 44° SSW
Terra 1.8 21:03:52 60° SSW 21:04:38 74° WSW 21:09:25 10° NNW
FALCON 9 DEB 4.3 21:04:29 10° WNW 21:07:41 40° N 21:07:41 40° N
Cosmos 540 Rocket 3.3 21:05:54 10° NNW 21:11:02 82° WSW 21:11:41 68° S
Cosmos 1814 Rocket 4.0 21:05:45 10° NNW 21:11:03 66° ENE 21:11:45 59° ESE
Cosmos 921 Rocket 3.0 21:08:02 10° NNW 21:12:21 73° NE 21:12:21 73° NE
SPOT 5 3.6 21:14:08 38° SW 21:15:05 42° W 21:19:42 10° NNW
NOSS 3-1 (C) 4.2 21:10:02 10° NW 21:17:26 67° SW 21:20:23 43° S
Meteor 2-2 Rocket 4.4 21:15:41 37° SSW 21:17:58 69° WNW 21:23:40 10° N
Cosmos 1842 Rocket 4.1 21:20:26 48° WSW 21:21:08 54° WNW 21:25:32 10° N
USA 215 3.5 21:21:35 44° S 21:22:55 50° SW 21:29:17 10° WNW
SL-16 R/B 3.7 21:18:54 10° NW 21:23:32 26° WSW 21:25:19 22° SW
Cosmos 1174 4.4 21:19:20 10° NNW 21:23:25 54° NNE 21:23:25 54° NNE
Cosmos 1437 Rocket 4.3 21:29:54 29° NE 21:29:54 29° NE 21:31:58 10° NNE
Cosmos 2315 Rocket 4.4 21:31:12 46° ESE 21:31:43 47° E 21:37:46 10° NNE
SL-4 R/B 2.6 21:27:43 10° W 21:32:17 67° N 21:33:32 46° NE
COSMOS 2455 3.8 21:29:18 10° WSW 21:35:04 45° NW 21:40:51 10° NNE
ERS-1 Rocket 4.3 21:33:52 27° WSW 21:35:06 30° W 21:39:30 10° NNW
Meteor 1-25 Rocket 4.2 21:30:23 10° N 21:36:08 68° ENE 21:36:42 63° ESE
ATLAS 5 CENTAUR R/B 4.2 21:35:45 10° NNW 21:39:42 22° NNE 21:44:10 10° ENE
Cosmos 2227 4.1 21:40:45 71° SSW 21:41:24 86° ESE 21:47:12 10° NNE
Sich 1 3.4 21:37:54 10° N 21:41:28 61° N 21:41:28 61° N
Cosmos 1805 Rocket 3.9 21:38:10 10° NNW 21:41:58 62° NW 21:41:58 62° NW
Cosmos 2221 3.9 21:41:54 30° W 21:42:39 32° WNW 21:46:32 10° N
Meteor 1-20 Rocket 4.1 21:41:44 10° N 21:47:35 86° ENE 21:48:01 77° SSE
Cosmos 1943 3.3 21:44:19 10° NW 21:49:51 60° WSW 21:50:06 60° SW
Cosmos 1745 Rocket 4.2 21:45:59 10° NNW 21:52:11 61° W 21:53:25 51° SW
SeaSat 1 3.0 21:47:29 10° NE 21:51:19 48° ENE 21:51:19 48° ENE
Cosmos 1570 Rocket 4.3 21:48:04 10° NNW 21:53:14 57° WSW 21:53:14 57° WSW
Cosmos 1709 Rocket 3.8 21:51:14 10° N 21:57:29 90° WSW 21:58:09 73° S
Iridium 4 Rocket 3.9 21:58:16 50° ENE 21:58:16 50° ENE 22:03:06 10° NNE
Meteor 1-26 Rocket 4.4 21:59:48 60° E 21:59:48 60° E 22:05:28 10° NNE
Spot 4 3.9 22:00:15 76° N 22:00:15 76° N 22:04:46 10° NNW
Cosmos 1633 Rocket 3.7 21:58:48 10° N 22:02:12 52° NNE 22:02:12 52° NNE
Cosmos 1606 4.4 22:06:56 29° NW 22:06:56 29° NW 22:09:37 10° N
S3M 4.4 22:05:25 45° SW 22:07:07 59° WNW 22:13:27 10° N
Cosmos 883 Rocket 4.4 22:06:43 70° SSW 22:07:30 85° W 22:13:51 10° N
Cosmos 1666 Rocket 4.2 22:09:26 10° NNW 22:12:59 54° NNW 22:12:59 54° NNW
Cosmos 2263 Rocket 2.8 22:16:15 38° WSW 22:17:52 50° NW 22:23:19 10° NNE
Cosmos 1328 Rocket 4.5 22:22:32 46° NNE 22:22:32 46° NNE 22:25:45 10° NNE
Cosmos 968 Rocket 3.8 22:22:53 61° NE 22:22:53 61° NE 22:27:22 10° NNE
NOSS 2-2 (D) 4.4 22:19:45 10° NW 22:24:57 76° NE 22:25:44 66° E
USA 229 DEB 4.5 22:19:42 10° NW 22:26:26 40° WSW 22:27:01 39° SW
USA 229 4.5 22:19:47 10° NW 22:26:32 40° WSW 22:27:07 40° SW
Cosmos 1782 4.2 22:28:48 38° N 22:28:48 38° N 22:31:22 10° N
Lacrosse 5 rocket 3.2 22:23:31 10° WNW 22:25:35 26° WNW 22:25:35 26° WNW
COBE Rocket 4.3 22:29:10 56° NE 22:29:10 56° NE 22:33:27 10° N
Cosmos 1844 Rocket 3.2 22:30:56 47° ENE 22:30:56 47° ENE 22:35:21 10° NE
Cosmos 1151 Rocket 4.0 22:34:17 46° N 22:34:17 46° N 22:37:28 10° N
Thor Agena Rocket 4.3 22:28:19 10° NNE 22:32:22 42° ENE 22:32:22 42° ENE
ALOS 2 3.4 22:35:37 48° NNW 22:35:37 48° NNW 22:38:53 10° NNW
CZ-4C R/B 4.2 22:34:48 10° NW 22:40:54 35° NNE 22:47:58 10° E
Cosmos 2082 Rocket 4.4 22:47:25 10° N 22:51:36 21° NE 22:55:46 10° E
Cosmos 1833 Rocket 4.1 22:48:53 10° NNW 22:53:58 33° NE 22:56:04 25° E
Cosmos 1486 Rocket 4.2 22:57:26 71° NW 22:57:26 71° NW 23:02:28 10° NNE
Meteor 1-5 Rocket 4.2 22:56:10 10° NNW 23:01:31 71° WNW 23:01:31 71° WNW
Cosmos 2154 Rocket 3.9 22:57:17 10° N 23:03:41 77° E 23:04:10 73° ESE
Meteor 2-6 Rocket 4.1 23:11:23 76° NNW 23:11:23 76° NNW 23:16:27 10° N
SL-4 R/B 4.3 23:07:39 10° WNW 23:09:09 20° WNW 23:09:09 20° WNW
Cosmos 2184 Rocket 4.0 23:08:29 10° NNW 23:14:45 65° W 23:14:58 64° WSW
Cosmos 2327 Rocket 4.3 23:09:24 10° N 23:15:44 89° E 23:16:08 80° SSE
SJ 16-02 3.5 23:17:22 18° ENE 23:17:22 18° ENE 23:19:24 10° NE
Cosmos 1869 Rocket 4.5 23:12:45 10° N 23:15:56 46° N 23:15:56 46° N
Cosmos 2278 Rocket 3.7 23:19:29 25° E 23:19:29 25° E 23:23:34 10° NE
USA 305 4.3 23:25:52 36° NE 23:25:52 36° NE 23:28:42 10° ENE
ATLAS 5 CENTAUR R/B 2.6 23:19:57 10° NW 23:25:18 60° NE 23:27:06 43° E
SeaSat 1 4.1 23:25:27 10° NNE 23:29:37 28° NW 23:31:05 24° WNW
Cosmos 2341 Rocket 4.2 23:23:45 10° N 23:30:05 65° ENE 23:31:01 58° ESE
Cosmos 1295 Rocket 4.3 23:24:04 10° N 23:30:22 83° W 23:30:44 78° SSW
SL-8 Rocket 4.4 23:26:14 10° N 23:32:24 54° ENE 23:33:40 47° ESE
Cosmos 1844 4.0 23:41:40 57° W 23:42:08 59° WNW 23:47:49 10° NNE
USA 306 4.0 23:43:11 44° NNE 23:43:11 44° NNE 23:46:47 10° ENE
USA 281 3.0 23:43:08 69° SSW 23:43:44 74° WSW 23:50:21 10° NNW
COSMOS 2406 3.3 23:38:35 10° NNW 23:44:16 69° ENE 23:44:55 63° E
Cosmos 1503 Rocket 4.5 23:44:44 51° WNW 23:44:44 51° WNW 23:49:47 10° NNE
Cosmos 962 Rocket 4.3 23:45:58 10° N 23:52:11 81° W 23:52:36 76° SW
Gbstr 26 Del rocket 3.7 23:53:47 73° SE 23:53:47 73° SE 23:59:08 10° ENE
